Temp
13 14 14 14 14 14 13 13 14 15 15 16 16 15 15 15 15 15 15 15 15 16
13 14 15 16 16 15 15 15 16 15 15 16 16 16 16 15 15 15 15 15 15 15
14 14 15 16 16 16 16 16 17 16 16 16 16 16 15 15 15 15 15 15 14 14
15 15 16 17 17 17 16 16 17 16 15 15 16 16 16 16 16 16 16 15 14 14
16 16 16 17 17 17 17 17 17 16 17 16 16 16 16 16 16 16 16 15 14 12
17 17 17 16 16 16 16 16 16 16 16 16 17 16 16 16 16 16 15 14 12 12
18 17 17 17 17 16 16 16 16 16 16 16 16 16 16 16 16 15 13 12 12 11
18 18 17 17 17 17 16 16 16 16 16 16 16 16 16 16 15 14 13 12 11 10
18 18 17 17 17 16 16 16 16 16 16 16 14 14 14 14 13 12 11 9 6 5
19 18 17 17 17 17 16 16 13 12 12 11 10 10 11 10 9 7 5 4 2 1
19 18 18 18 17 12 11 11 9 8 7 6 5 5 6 6 4 2 0 -1 -1 -1
18 18 13 11 10 8 9 6 4 3 2 2 0 2 3 3 1 -1 -2 -2 -2 -2
11 11 8 7 6 4 4 1 0 -1 -1 -1 -1 -0 0 0 -1 -2 -3 -3 -3 -4
6 5 4 2 1 0 -1 -2 -3 -3 -3 -3 -2 -2 -1 -1 -1 -2 -4 -4 -5 -5
Height
758 761 765 770 776 781 786 791 795 799 801 805 808 811 813 814 814 818 820 820 820 823
753 757 762 766 771 776 781 785 789 793 796 800 802 805 806 807 809 813 813 814 814 815
747 752 756 760 764 769 774 778 782 786 790 792 795 798 800 803 804 806 807 806 807 808
741 747 751 755 758 763 768 772 776 780 784 788 790 792 795 796 797 798 799 799 799 797
733 740 746 750 754 759 762 766 770 774 778 781 784 786 787 788 789 790 790 790 790 788
726 730 736 743 749 753 758 761 765 768 771 773 776 778 780 781 781 782 782 783 784 782
721 725 729 734 740 745 751 755 759 762 764 767 769 770 772 772 773 774 775 777 776 773
715 722 727 731 735 739 744 748 753 756 759 762 764 765 765 766 767 767 767 767 766 766
708 714 720 726 730 735 739 744 748 751 754 757 755 755 758 760 760 761 760 762 763 763
701 708 713 719 725 730 734 738 740 743 746 748 750 751 753 755 756 757 760 762 764 765
694 700 708 713 719 722 727 732 736 740 743 746 750 753 754 755 756 758 762 765 768 768
693 698 702 706 713 719 723 731 737 743 746 749 753 755 756 756 758 762 765 770 772 774
691 696 705 710 716 722 726 732 738 744 749 753 755 758 759 760 763 766 771 774 777 778
696 701 708 713 719 724 730 736 742 747 754 757 761 764 765 767 768 772 775 779 780 781
Wind_Speed
27 21 24 29 31 32 29 30 30 34 26 24 21 21 22 21 19 22 22 21 20 22
26 27 26 27 29 34 37 31 32 30 29 28 25 25 22 20 21 23 23 23 23 24
27 28 29 28 32 29 32 32 29 31 30 25 26 26 24 25 25 26 26 23 23 26
27 27 27 25 26 31 29 31 32 30 30 28 28 27 29 28 28 28 28 28 28 29
30 30 31 29 26 25 26 26 28 28 28 29 30 31 32 31 30 31 31 32 30 35
29 31 31 30 28 27 28 27 28 29 30 30 30 31 31 31 31 32 31 30 31 38
29 29 29 29 29 29 28 28 28 28 29 29 29 29 30 30 29 27 28 33 36 36
27 26 26 26 26 26 27 27 26 25 25 23 24 25 26 25 27 26 24 22 21 18
27 26 26 25 24 23 22 21 21 21 22 24 18 22 22 22 25 23 15 10 4 3
27 26 25 24 22 21 20 19 13 13 9 6 4 10 14 11 7 4 4 5 6 10
26 25 23 22 18 16 15 12 10 9 8 9 10 8 4 5 12 15 16 16 16 15
21 21 17 20 18 17 18 18 17 17 17 18 17 13 13 14 20 22 22 19 16 16
18 21 22 23 23 23 25 28 27 28 25 24 23 19 20 21 23 24 22 19 18 17
25 28 27 29 28 30 32 34 33 34 31 31 28 25 23 21 22 20 18 15 13 13
Wind_Direction
192 177 179 190 197 196 199 204 207 212 206 217 213 219 224 224 226 234 239 240 242 249
195 198 200 195 197 203 211 215 217 217 222 225 224 228 233 233 234 235 240 239 243 250
198 205 203 206 199 201 205 212 217 219 225 229 229 230 232 234 234 238 244 246 246 245
196 206 203 207 203 204 205 205 214 212 217 222 226 228 230 234 238 241 246 246 244 244
195 198 206 209 208 207 211 210 210 218 220 223 229 232 234 238 241 244 248 248 241 247
198 199 202 208 212 210 214 218 219 222 226 231 235 239 241 244 249 251 252 247 250 261
203 204 204 205 208 212 215 219 224 228 232 236 240 243 246 249 248 247 250 251 257 265
203 207 209 209 209 212 215 220 225 229 235 240 244 247 249 250 252 251 247 249 251 259
199 202 206 208 208 210 215 219 225 231 234 238 232 239 242 247 260 263 252 238 241 290
199 202 202 204 206 209 211 210 190 196 209 214 258 284 277 277 248 198 136 121 106 87
196 199 201 201 195 160 143 148 130 115 112 110 89 72 81 124 113 104 96 92 89 92
191 189 158 135 133 134 138 121 113 109 106 104 94 102 104 112 108 102 93 88 83 72
141 135 132 137 136 133 128 119 115 102 99 96 92 95 101 103 102 95 88 81 72 69
123 125 128 123 122 120 112 107 100 94 90 89 87 85 86 87 87 88 85 76 65 55